| time (UTC) | temp F | wind direction | speed MPH | gust MPH | rain 1hr in | rain 24hr in | rain mn in | humidity % | barometer mb |
| 20260903033103 | 85 | 134 | 3.0 | 11.0 | 0.00 | 0.00 | 0.00 | 68 | 1012.3 |
| 20260903031540 | 85 | 122 | 4.0 | 14.0 | 0.00 | 0.00 | 0.00 | 66 | 1012.1 |
| 20260903030005 | 86 | 134 | 6.0 | 14.0 | 0.00 | 0.00 | 0.00 | 64 | 1011.8 |
| 20260903024537 | 87 | 191 | 6.0 | 17.0 | 0.00 | 0.00 | 0.00 | 62 | 1011.5 |
| 20260903023008 | 88 | 157 | 7.0 | 12.0 | 0.00 | 0.00 | 0.00 | 60 | 1011.2 |
| 20260903021547 | 89 | 173 | 6.0 | 15.0 | 0.00 | 0.00 | 0.00 | 56 | 1010.9 |
| 20260903020021 | 90 | 140 | 6.0 | 11.0 | 0.00 | 0.00 | 0.00 | 53 | 1010.5 |
| 20260903014551 | 91 | 131 | 6.0 | 15.0 | 0.00 | 0.00 | 0.00 | 50 | 1010.3 |
| 20260903013009 | 93 | 124 | 6.0 | 15.0 | 0.00 | 0.00 | 0.00 | 46 | 1010.1 |
| 20260903011600 | 94 | 158 | 4.0 | 13.0 | 0.00 | 0.00 | 0.00 | 44 | 1009.8 |
| 20260903010015 | 95 | 160 | 5.0 | 13.0 | 0.00 | 0.00 | 0.00 | 44 | 1009.7 |
| 20260903004548 | 96 | 144 | 4.0 | 13.0 | 0.00 | 0.00 | 0.00 | 43 | 1009.4 |
| 20260903003016 | 99 | 136 | 4.0 | 12.0 | 0.00 | 0.00 | 0.00 | 37 | 1009.4 |
| 20260903001548 | 104 | 119 | 1.0 | 4.0 | 0.00 | 0.00 | 0.00 | 25 | 1009.4 |
| 20260903000035 | 103 | 229 | 1.0 | 3.0 | 0.00 | 0.00 | 0.00 | 26 | 1009.3 |
| 20260902234558 | 104 | 209 | 1.0 | 4.0 | 0.00 | 0.00 | 0.00 | 26 | 1009.3 |
| 20260902233032 | 104 | 229 | 0.0 | 1.0 | 0.00 | 0.00 | 0.00 | 27 | 1009.4 |
| 20260902231555 | 104 | 170 | 1.0 | 6.0 | 0.00 | 0.00 | 0.00 | 27 | 1009.4 |
| 20260902230023 | 105 | 134 | 1.0 | 9.0 | 0.00 | 0.00 | 0.00 | 26 | 1009.5 |
| 20260902224607 | 105 | 192 | 3.0 | 8.0 | 0.00 | 0.00 | 0.00 | 26 | 1009.5 |
| 20260902223029 | 105 | 66 | 2.0 | 7.0 | 0.00 | 0.00 | 0.00 | 27 | 1009.5 |
| 20260902221559 | 105 | 238 | 1.0 | 5.0 | 0.00 | 0.00 | 0.00 | 27 | 1009.6 |
| 20260902220041 | 104 | 211 | 5.0 | 9.0 | 0.00 | 0.00 | 0.00 | 27 | 1009.7 |
| 20260902214612 | 104 | 159 | 4.0 | 8.0 | 0.00 | 0.00 | 0.00 | 28 | 1009.7 |
| 20260902213030 | 104 | 106 | 1.0 | 5.0 | 0.00 | 0.00 | 0.00 | 29 | 1009.9 |
| 20260902211602 | 102 | 217 | 0.0 | 6.0 | 0.00 | 0.00 | 0.00 | 31 | 1010.1 |
| 20260902210035 | 103 | 335 | 0.0 | 9.0 | 0.00 | 0.00 | 0.00 | 31 | 1010.3 |
| 20260902204504 | 101 | 329 | 1.0 | 7.0 | 0.00 | 0.00 | 0.00 | 31 | 1010.5 |
| 20260902203039 | 102 | 224 | 3.0 | 7.0 | 0.00 | 0.00 | 0.00 | 30 | 1010.9 |
| 20260902201518 | 104 | 179 | 4.0 | 7.0 | 0.00 | 0.00 | 0.00 | 28 | 1011.0 |
| 20260902200036 | 103 | 47 | 1.0 | 5.0 | 0.00 | 0.00 | 0.00 | 30 | 1011.3 |
| 20260902194502 | 102 | 57 | 0.0 | 6.0 | 0.00 | 0.00 | 0.00 | 31 | 1011.6 |
| 20260902193033 | 101 | 96 | 1.0 | 9.0 | 0.00 | 0.00 | 0.00 | 33 | 1011.9 |
| 20260902191504 | 101 | 113 | 3.0 | 13.0 | 0.00 | 0.00 | 0.00 | 34 | 1012.2 |
| 20260902190032 | 101 | 220 | 1.0 | 8.0 | 0.00 | 0.00 | 0.00 | 34 | 1012.4 |
| 20260902184607 | 99 | 170 | 3.0 | 10.0 | 0.00 | 0.00 | 0.00 | 36 | 1012.8 |
| 20260902183040 | 99 | 207 | 2.0 | 8.0 | 0.00 | 0.00 | 0.00 | 36 | 1013.1 |
| 20260902181603 | 98 | 225 | 1.0 | 11.0 | 0.00 | 0.00 | 0.00 | 38 | 1013.3 |
| 20260902180032 | 97 | 177 | 3.0 | 9.0 | 0.00 | 0.00 | 0.00 | 42 | 1013.6 |
| 20260902174601 | 96 | 200 | 6.0 | 10.0 | 0.00 | 0.00 | 0.00 | 42 | 1014.0 |
| 20260902173020 | 96 | 216 | 6.0 | 15.0 | 0.00 | 0.00 | 0.00 | 47 | 1014.3 |
| 20260902171545 | 95 | 219 | 6.0 | 10.0 | 0.00 | 0.00 | 0.00 | 50 | 1014.5 |
| 20260902170012 | 94 | 174 | 4.0 | 10.0 | 0.00 | 0.00 | 0.00 | 52 | 1014.8 |
| 20260902164544 | 92 | 134 | 3.0 | 10.0 | 0.00 | 0.00 | 0.00 | 55 | 1014.9 |
| 20260902163013 | 91 | 200 | 5.0 | 11.0 | 0.00 | 0.00 | 0.00 | 58 | 1015.1 |
| 20260902161544 | 90 | 226 | 3.0 | 10.0 | 0.00 | 0.00 | 0.00 | 60 | 1015.1 |
| 20260902160016 | 89 | 233 | 7.0 | 13.0 | 0.00 | 0.00 | 0.00 | 61 | 1015.0 |
| 20260902154548 | 88 | 230 | 7.0 | 12.0 | 0.00 | 0.00 | 0.00 | 64 | 1015.0 |
| 20260902153030 | 88 | 233 | 7.0 | 12.0 | 0.00 | 0.00 | 0.00 | 64 | 1015.0 |
| 20260902151545 | 87 | 210 | 8.0 | 13.0 | 0.00 | 0.00 | 0.00 | 66 | 1015.0 |
| 20260902150014 | 86 | 192 | 8.0 | 13.0 | 0.00 | 0.00 | 0.00 | 69 | 1015.1 |
| 20260902144550 | 84 | 187 | 5.0 | 10.0 | 0.00 | 0.00 | 0.00 | 72 | 1015.1 |
| 20260902143015 | 83 | 206 | 5.0 | 9.0 | 0.00 | 0.00 | 0.00 | 76 | 1015.1 |
| 20260902141601 | 82 | 229 | 4.0 | 8.0 | 0.00 | 0.00 | 0.00 | 78 | 1015.2 |
| 20260902140013 | 81 | 229 | 3.0 | 7.0 | 0.00 | 0.00 | 0.00 | 80 | 1015.2 |
| 20260902134543 | 80 | 206 | 2.0 | 5.0 | 0.00 | 0.00 | 0.00 | 83 | 1015.1 |
| 20260902133013 | 78 | 199 | 1.0 | 4.0 | 0.00 | 0.00 | 0.00 | 85 | 1015.0 |
| 20260902131552 | 77 | 196 | 0.0 | 2.0 | 0.00 | 0.00 | 0.00 | 86 | 1014.9 |
| 20260902130014 | 76 | 219 | 0.0 | 0.0 | 0.00 | 0.00 | 0.00 | 85 | 1014.7 |
| 20260902124602 | 75 | 219 | 0.0 | 0.0 | 0.00 | 0.00 | 0.00 | 85 | 1014.6 |
| 20260902123017 | 75 | 219 | 0.0 | 0.0 | 0.00 | 0.00 | 0.00 | 85 | 1014.3 |
| 20260902121553 | 74 | 219 | 0.0 | 0.0 | 0.00 | 0.00 | 0.00 | 85 | 1014.3 |
| 20260902120023 | 75 | 219 | 0.0 | 0.0 | 0.00 | 0.00 | 0.00 | 85 | 1014.3 |
| 20260902114552 | 75 | 219 | 0.0 | 0.0 | 0.00 | 0.00 | 0.00 | 85 | 1014.2 |
| 20260902113023 | 75 | 219 | 0.0 | 0.0 | 0.00 | 0.00 | 0.00 | 84 | 1014.1 |
| 20260902111559 | 75 | 219 | 0.0 | 0.0 | 0.00 | 0.00 | 0.00 | 84 | 1014.0 |
| 20260902110030 | 75 | 219 | 0.0 | 0.0 | 0.00 | 0.00 | 0.00 | 84 | 1013.9 |
| 20260902104601 | 76 | 219 | 0.0 | 0.0 | 0.00 | 0.00 | 0.00 | 84 | 1013.9 |
| 20260902103034 | 76 | 219 | 0.0 | 0.0 | 0.00 | 0.00 | 0.00 | 84 | 1014.0 |
| 20260902101505 | 76 | 219 | 0.0 | 0.0 | 0.00 | 0.00 | 0.00 | 83 | 1013.8 |
| 20260902100036 | 76 | 219 | 0.0 | 0.0 | 0.00 | 0.00 | 0.00 | 84 | 1013.7 |
| 20260902094505 | 77 | 219 | 0.0 | 1.0 | 0.00 | 0.00 | 0.00 | 83 | 1013.7 |
| 20260902093041 | 77 | 219 | 0.0 | 1.0 | 0.00 | 0.00 | 0.00 | 83 | 1013.7 |
| 20260902091518 | 77 | 222 | 0.0 | 2.0 | 0.00 | 0.00 | 0.00 | 83 | 1013.8 |
| 20260902090045 | 77 | 208 | 1.0 | 2.0 | 0.00 | 0.00 | 0.00 | 82 | 1013.8 |
| 20260902084517 | 77 | 204 | 1.0 | 3.0 | 0.00 | 0.00 | 0.00 | 82 | 1013.7 |
| 20260902083053 | 78 | 204 | 1.0 | 2.0 | 0.00 | 0.00 | 0.00 | 81 | 1013.8 |
| 20260902081518 | 78 | 195 | 1.0 | 3.0 | 0.00 | 0.00 | 0.00 | 81 | 1013.7 |
| 20260902080051 | 78 | 160 | 0.0 | 2.0 | 0.00 | 0.00 | 0.00 | 80 | 1013.8 |
| 20260902074520 | 78 | 159 | 0.0 | 3.0 | 0.00 | 0.00 | 0.00 | 80 | 1013.9 |
| 20260902073056 | 78 | 165 | 0.0 | 2.0 | 0.00 | 0.00 | 0.00 | 79 | 1014.1 |
| 20260902071524 | 79 | 190 | 0.0 | 3.0 | 0.00 | 0.00 | 0.00 | 79 | 1014.1 |
| 20260902070159 | 79 | 200 | 2.0 | 4.0 | 0.00 | 0.00 | 0.00 | 79 | 1014.0 |
| 20260902064539 | 79 | 226 | 2.0 | 6.0 | 0.00 | 0.00 | 0.00 | 77 | 1014.0 |
| 20260902063002 | 79 | 191 | 2.0 | 6.0 | 0.00 | 0.00 | 0.00 | 77 | 1014.1 |
| 20260902061541 | 79 | 200 | 1.0 | 3.0 | 0.00 | 0.00 | 0.00 | 75 | 1014.0 |
| 20260902060007 | 79 | 165 | 0.0 | 3.0 | 0.00 | 0.00 | 0.00 | 74 | 1014.1 |
| 20260902054542 | 79 | 150 | 0.0 | 2.0 | 0.00 | 0.00 | 0.00 | 73 | 1014.0 |
| 20260902053012 | 80 | 155 | 1.0 | 2.0 | 0.00 | 0.00 | 0.00 | 72 | 1013.9 |
| 20260902051546 | 80 | 104 | 0.0 | 4.0 | 0.00 | 0.00 | 0.00 | 72 | 1013.8 |
| 20260902050015 | 80 | 202 | 2.0 | 5.0 | 0.00 | 0.00 | 0.00 | 73 | 1013.8 |
| 20260902044548 | 80 | 120 | 0.0 | 2.0 | 0.00 | 0.00 | 0.00 | 73 | 1014.0 |
| 20260902043021 | 80 | 127 | 0.0 | 1.0 | 0.00 | 0.00 | 0.00 | 72 | 1014.0 |
| 20260902041601 | 81 | 134 | 0.0 | 1.0 | 0.00 | 0.00 | 0.00 | 71 | 1014.0 |
| 20260902040027 | 81 | 142 | 0.0 | 0.0 | 0.00 | 0.00 | 0.00 | 70 | 1013.9 |
| 20260902034605 | 81 | 153 | 0.0 | 1.0 | 0.00 | 0.00 | 0.00 | 69 | 1013.7 |